STARLINK-11411, 62018

Orbit data source: Space-Track

STARLINK-11411, 62018 is a payload satellite owned by SpaceX/Seattle (US) in LEO that was launched on Mon, 18 Nov 2024 UTC via an FALCON 9 launch vehicle from the Air Force Western Test Range (AFWTR). Payload-class satellites include a variety of spacecraft equipped with specific instruments for various scientific and technological missions. These include communications satellites like Starlink; space stations such as the ISS; scientific satellites like the Hubble; Earth observation satellites from companies like Planet Labs, Umbra, and HawkEye 360; GPS; miniature CubeSats for education and research; and military/defense satellites.

Loading next visibility...
Identifier
62018, 2024-213L
Orbit
LEO
Last TLE update
7 hours ago
Origin
Manufacturer
SpaceX/Seattle
Mission
Operational Commercial Communications
Bus & Motor
STARLINK V2M, Unknown motor
Mass
730 kg wet, ~700 kg dry
Launch date (UTC)
2024-11-18 (8 months ago)
Launch vehicle
FALCON 9
Launch site
Air Force Western Test Range (AFWTR)
Object type
Payload
Rocket body
Debris
Shape & HBR
Box + 2 Pan, 29 m
Radar Cross Section
36.964 m², Large (>1 m²)

Expand to show TLE details & history

TLE from 7 hours ago
0 STARLINK-11411
1 62018U 24213L   25186.38814951  .00254981  00000-0  20419-2 0  9997
2 62018  53.1564 180.3735 0001361 105.1585 254.9584 15.69752079 37273
Epoch: 2025-07-05T09:18Z
TLE epoch observation values (Epoch: 2025-07-05T09:18:56.117Z)
Latitude
0.00001°
Longitude
117.01278°
Altitude
360.759 km
Speed
7.694 km/s
True Right ascension
12h 01m 29s
True Declination
0° 00' 00"
Sunlit
Object was in daylight at epoch
Visualization orbit readout
Latitude
-51.71369°
Longitude
44.79205°
Altitude
377.974 km
Speed
7.682 km/s
Apparent Right ascension
12h 40m 41s
Apparent Declination
-71° 13' 18"
Sunlit
Object is in daylight
Visualization observer readout
Local Sidereal Time
04:32:37
Azimuth
156.124° SSE
Elevation
-47.596°
Doppler factor
1
Orbital elements
Apogee altitude
360.785 km
Perigee altitude
358.951 km
Semi-major axis
6,738.005 km
Eccentricity
0.00014
Inclination
53.1564°
RAAN
180.3735°
Arg. of periapsis
105.1585°
True anomaly
Unknown
Mean anomaly
254.9584°
Eccentric anomaly
Unknown
Mean motion
3.92416 °/min
Orbital period
91.74 mins
BSTAR
0.0020419
Loading maneuver chart data...
Loading SW <> Apogee altitude chart data...
Loading historical data...
Loading historical data...
Loading historical data...
Loading historical data...
Loading historical data...
Loading historical data...
Loading historical data...

STARLINK-11411 Visibility forecast

Observer location: undefined°, undefined°

Span
Click to sort rows by Start time (UTC) header in descending order
Start Az.
Max El. time (UTC)
Max El. Az.
Max El.
End time (UTC)
End Az.
5 mins2025-07-06 02:18:23.626Z224.521° SW2025-07-06 02:20:23.626Z199.184° SSW42.967°2025-07-06 02:23:23.626Z52.381° ENE
4 mins2025-07-06 08:43:23.626Z327.486° NNW2025-07-06 08:45:23.626Z46.902° ENE35.895°2025-07-06 08:47:23.626Z107.801° ESE
|